Location: Arroyo de San Miguel
(40.9167°N, 4.6667°W)
Time: 14:35:10
(UTC+00:00)

Cosmos 2151 - Pass Details

Date: 19 May 2025
Orbit: 562 x 578 km, 82.5° (Epoch: 17 June)

Event Time Altitude Azimuth Distance (km) Brightness Sun altitude
Rises 20:46:01 0° 345° (NNW) 2,801 7.4 -12.2°
Reaches altitude 10° 20:48:17 10° 340° (NNW) 1,899 6.6 -12.5°
Maximum altitude 20:52:17 46° 267° (W) 785 3.9 -13.1°
Drops below altitude 10° 20:56:16 10° 194° (SSW) 1,886 5.3 -13.6°
Enters shadow 20:57:24 - 190° (S) 2,333 5.7 -13.8°
